星链-32428 (STARLINK-32428)

导读

STARLINK-32428是美国SpaceX公司星链(Starlink)卫星星座的成员,于2024年10月26日发射入轨。星链星座部署在近地轨道,旨在为全球尤其偏远地区提供高速宽带互联网服务,可支持流媒体、视频会议、网络游戏等日常应用。作为星座扩容的一部分,该卫星进一步完善了星链全球网络覆盖,提升星座服务稳定性与容量,助力SpaceX实现全球无处不在的互联网连接目标。

基本信息
目录编号:
61666
目录名称:
STARLINK-32428
国际标识:
2024-193F
轨道中心:
EARTH
卫星名称:
星链-32428
卫星全名:
星链-32428 (STARLINK-32428)
卫星状态:
在轨 (已飞行599 天)
发射日期:
2024-10-26 UTC
国别 :
美国 (US)
星等 :
--
轨道信息
数据来源 国际轨道数据
星历时间: 2026-06-17T22:00:01+0800
7小时前
查看轨道信息
半长轴: 6848.888km
偏心率: 0.000105
轨道倾角: 53.160°
近地点辐角 77.657°
升交点赤经 346.846°
平近点角 263.629°
近地点: 470.031km
远地点: 471.471km
周期: 94.013分钟
每日圈数: 15.316966
详细信息
固有亮度:
5
最大亮度:
2.5
卫星平台:
Starlink V1.0
覆盖范围:
全球
运营商:
太空探索技术公司
运营商所在国:
美国
制造商(研发单位):
太空探索技术公司
制造商所在国:
美国
使用方式:
暂无
卫星简介
Starlink 计划是 SpaceX 推出的全球卫星互联网项目,通过发射低轨道卫星,为全球尤其是偏远地区提供高速、低延迟的互联网服务。自 2019 年起,Starlink 已部署数千颗卫星,旨在缩小全球数字鸿沟,推动互联网普及。该项目还为军事、航空等行业提供通信支持,带来广泛经济效益。
2D轨道图
3D轨道图
轨道高度分析图
轨道倾角分析图
轨道综合分析图
查看轨道综合分析图